| time (UTC) | temp F | wind direction | speed MPH | gust MPH | rain 1hr in | rain 24hr in | rain mn in | humidity % | barometer mb |
| 20260504223019 | 81 | 210 | 5.0 | 13.0 | 0.00 | 0.00 | 0.00 | 55 | 1006.8 |
| 20260504221518 | 81 | 118 | 3.0 | 14.0 | 0.00 | 0.00 | 0.00 | 56 | 1007.0 |
| 20260504220016 | 81 | 164 | 4.0 | 13.0 | 0.00 | 0.00 | 0.00 | 55 | 1007.3 |
| 20260504214514 | 81 | 226 | 4.0 | 12.0 | 0.00 | 0.00 | 0.00 | 54 | 1007.3 |
| 20260504213013 | 82 | 142 | 5.0 | 11.0 | 0.00 | 0.00 | 0.00 | 52 | 1007.6 |
| 20260504211512 | 82 | 268 | 3.0 | 13.0 | 0.00 | 0.00 | 0.00 | 53 | 1007.8 |
| 20260504210011 | 83 | 148 | 2.0 | 12.0 | 0.00 | 0.00 | 0.00 | 53 | 1008.0 |
| 20260504204509 | 82 | 217 | 2.0 | 18.0 | 0.00 | 0.00 | 0.00 | 54 | 1008.5 |
| 20260504203007 | 82 | 98 | 2.0 | 9.0 | 0.00 | 0.00 | 0.00 | 52 | 1008.9 |
| 20260504201502 | 81 | 224 | 4.0 | 13.0 | 0.00 | 0.00 | 0.00 | 52 | 1009.2 |
| 20260504200101 | 81 | 221 | 5.0 | 10.0 | 0.00 | 0.00 | 0.00 | 51 | 1009.6 |
| 20260504194558 | 81 | 117 | 3.0 | 15.0 | 0.00 | 0.00 | 0.00 | 51 | 1009.7 |
| 20260504193056 | 81 | 221 | 4.0 | 11.0 | 0.00 | 0.00 | 0.00 | 50 | 1009.9 |
| 20260504191605 | 81 | 143 | 3.0 | 16.0 | 0.00 | 0.00 | 0.00 | 50 | 1010.1 |
| 20260504190054 | 80 | 159 | 2.0 | 16.0 | 0.00 | 0.00 | 0.00 | 51 | 1010.3 |
| 20260504184548 | 79 | 135 | 2.0 | 13.0 | 0.00 | 0.00 | 0.00 | 50 | 1010.4 |
| 20260504183045 | 79 | 190 | 4.0 | 14.0 | 0.00 | 0.00 | 0.00 | 49 | 1010.6 |
| 20260504181545 | 80 | 177 | 4.0 | 11.0 | 0.00 | 0.00 | 0.00 | 48 | 1010.9 |
| 20260504180039 | 79 | 105 | 3.0 | 14.0 | 0.00 | 0.00 | 0.00 | 48 | 1010.9 |
| 20260504174535 | 78 | 150 | 3.0 | 12.0 | 0.00 | 0.00 | 0.00 | 48 | 1011.3 |
| 20260504081532 | 63 | 96 | 0.0 | 4.0 | 0.00 | 0.00 | 0.00 | 66 | 1013.7 |
| 20260504050012 | 67 | 160 | 0.0 | 7.0 | 0.00 | 0.00 | 0.00 | 56 | 1015.7 |
| 20260504044509 | 67 | 136 | 0.0 | 3.0 | 0.00 | 0.00 | 0.00 | 56 | 1015.7 |
| 20260504024504 | 71 | 161 | 0.0 | 4.0 | 0.00 | 0.00 | 0.00 | 49 | 1015.5 |
| 20260504023015 | 71 | 167 | 0.0 | 4.0 | 0.00 | 0.00 | 0.00 | 48 | 1015.6 |